Content
SEND FEEDBACK

Daily
Averages
Monthly
Summary
United States of America

EAST FALMOUTH, MASSACHUSETTS


Home > North America > United States > Massachusetts
Elevation: 70 feet     Latitude: 41 37N     Longitude: 070 32W

WEATHER
 
SELECT A DAY
Number of Records: 269,964;   Date Range: 1/1/95 - 8/12/14
 
SHARE

PRINT THIS DATA

[ ← Previous Day ]
WEATHER ALMANAC - MARCH 6, 2013
[ Next Day → ]
[ °C ]   °F
Weather ElementAverageHighLow
Temperature36.9 °F39.2 °F (10:35 am)32 °F (1:35 am)
Dewpoint33.3 °F35.6 °F (3:35 am)32 °F (12:35 am)
Humidity87.2 %100 % (1:35 am)75 % (10:35 am)
Barometer29.99 in30.05 in (9:15 am)29.92 in (10:15 pm)
Wind Speed19 mph33.4 mph (8:55 pm)
Wind Gust47.2 mph (9:55 pm)
Weather ElementAverage
Visibility6.3 mi
Wind DirectionENE (61.7 °)

Weather ElementTotal
Precipitation---
Heating Degree Days29.4 (Base 65)
Averaged from 71 records on March 6, 2013
WEATHER CONDITIONS BREAKOUT
WIND DIRECTION BREAKOUT
WEATHER BY HOUR - MARCH 6, 2013
[ °C ]   °F
Local TimeTemperatureDewpointHumidityBarometerVisibilityWind DirectionWind SpeedGust SpeedPrecipitationEventsConditions
12:35 AM33.8 °F32.0 °F93 %30.02 in7.0 miNNE (30°)6.9 mphRainLight Rain
12:55 AM35.6 °F32.0 °F87 %30.02 in10.0 miNorth (360°)4.6 mphMostly Cloudy
1:15 AM33.8 °F32.0 °F93 %30.02 in10.0 miCalmMostly Cloudy
1:35 AM32.0 °F32.0 °F100 %30.02 in8.0 miCalmOvercast
1:55 AM32.0 °F32.0 °F100 %30.02 in0.8 miCalmOvercast
2:15 AM32.0 °F32.0 °F100 %30.02 in9.0 miNNE (30°)3.5 mphOvercast
2:35 AM32.0 °F32.0 °F100 %30.01 in10.0 miNE (40°)3.5 mphOvercast
2:55 AM33.8 °F32.0 °F93 %30.02 in10.0 miNE (50°)4.6 mphOvercast
3:15 AM35.6 °F33.8 °F93 %30.02 in10.0 miNE (50°)5.8 mphOvercast
3:35 AM35.6 °F35.6 °F100 %30.03 in10.0 miENE (60°)6.9 mphOvercast
3:55 AM35.6 °F35.6 °F100 %30.03 in10.0 miNE (50°)4.6 mphOvercast
4:15 AM37.4 °F33.8 °F87 %30.02 in10.0 miNE (50°)6.9 mphOvercast
4:35 AM37.4 °F33.8 °F87 %30.02 in10.0 miENE (70°)6.9 mphOvercast
4:55 AM37.4 °F33.8 °F87 %30.02 in8.0 miENE (60°)12.7 mphMostly Cloudy
5:15 AM37.4 °F35.6 °F93 %30.02 in6.0 miENE (60°)11.5 mphOvercast
5:35 AM37.4 °F35.6 °F93 %30.01 in9.0 miENE (70°)12.7 mphOvercast
5:55 AM37.4 °F35.6 °F93 %30.01 inEast (80°)9.2 mph
6:15 AM37.4 °F35.6 °F93 %30.02 in8.0 miEast (80°)8.1 mphOvercast
6:35 AM37.4 °F35.6 °F93 %30.03 in10.0 miENE (70°)9.2 mphOvercast
6:55 AM37.4 °F35.6 °F93 %30.04 in7.0 miEast (80°)12.7 mphOvercast
7:15 AM37.4 °F35.6 °F93 %30.04 in3.0 miEast (80°)11.5 mph23.0 mphMostly Cloudy
7:35 AM37.4 °F35.6 °F93 %30.03 in6.0 miENE (70°)18.4 mph25.3 mphMostly Cloudy
7:55 AM37.4 °F35.6 °F93 %30.03 in4.0 miENE (70°)18.4 mph27.6 mphMostly Cloudy
8:15 AM37.4 °F35.6 °F93 %30.03 in5.0 miEast (80°)15.0 mph25.3 mphMostly Cloudy
8:35 AM37.4 °F33.8 °F87 %30.04 in4.0 miENE (70°)21.9 mph32.2 mphMostly Cloudy
8:55 AM37.4 °F33.8 °F87 %30.04 in5.0 miENE (70°)26.5 mph34.5 mphOvercast
9:15 AM37.4 °F32.0 °F81 %30.05 in3.0 miENE (70°)20.7 mph31.1 mphMostly Cloudy
9:35 AM37.4 °F33.8 °F87 %30.05 in10.0 miEast (80°)18.4 mph26.5 mphMostly Cloudy
9:55 AM37.4 °F33.8 °F87 %30.04 in8.0 miENE (70°)19.6 mph29.9 mphOvercast
10:15 AM37.4 °F32.0 °F81 %30.03 in9.0 miENE (70°)21.9 mph33.4 mphOvercast
10:35 AM39.2 °F32.0 °F75 %30.03 in5.0 miENE (70°)18.4 mph36.8 mphOvercast
10:55 AM39.2 °F33.8 °F81 %30.02 in10.0 miENE (70°)20.7 mph35.7 mphOvercast
11:15 AM39.2 °F32.0 °F75 %30.02 in10.0 miENE (70°)23.0 mph35.7 mphMostly Cloudy
11:35 AM39.2 °F32.0 °F75 %30.02 in10.0 miENE (70°)21.9 mph26.5 mphOvercast
11:55 AM39.2 °F32.0 °F75 %30.02 in5.0 miENE (70°)19.6 mph36.8 mphMostly Cloudy
12:15 PM37.4 °F33.8 °F87 %30.02 in4.0 miEast (80°)17.3 mph39.1 mphMostly Cloudy
12:35 PM39.2 °F33.8 °F81 %30.01 in3.0 miENE (70°)19.6 mph33.4 mphMostly Cloudy
12:55 PM39.2 °F35.6 °F87 %30.00 in9.0 miENE (60°)24.2 mph29.9 mphOvercast
1:15 PM37.4 °F35.6 °F93 %29.99 in4.0 miENE (60°)19.6 mph34.5 mphMostly Cloudy
1:35 PM39.2 °F32.0 °F75 %29.98 in8.0 miENE (70°)25.3 mph36.8 mphOvercast
1:55 PM39.2 °F32.0 °F75 %29.98 in7.0 miENE (70°)19.6 mph36.8 mphOvercast
2:15 PM37.4 °F32.0 °F81 %29.98 in8.0 miENE (60°)27.6 mph35.7 mphOvercast
2:35 PM37.4 °F32.0 °F81 %29.98 in5.0 miENE (60°)26.5 mph35.7 mphHaze
2:55 PM37.4 °F32.0 °F81 %29.98 in4.0 miENE (70°)25.3 mph32.2 mphHaze
3:15 PM37.4 °F32.0 °F81 %29.97 in3.0 miENE (60°)23.0 mph35.7 mphMostly Cloudy
3:35 PM37.4 °F33.8 °F87 %29.97 in2.5 miENE (60°)26.5 mph35.7 mphMostly Cloudy
3:55 PM37.4 °F33.8 °F87 %29.97 in2.0 miENE (60°)21.9 mph38.0 mphMostly Cloudy
4:15 PM37.4 °F33.8 °F87 %29.99 in3.0 miENE (60°)23.0 mph32.2 mphMostly Cloudy
4:35 PM37.4 °F33.8 °F87 %29.98 in1.8 miENE (60°)24.2 mph39.1 mphMostly Cloudy
4:55 PM37.4 °F33.8 °F87 %29.97 in2.5 miENE (60°)26.5 mph35.7 mphMostly Cloudy
5:15 PM35.6 °F33.8 °F93 %29.96 in2.5 miENE (60°)25.3 mph40.3 mphMostly Cloudy
5:35 PM37.4 °F33.8 °F87 %29.97 in4.0 miNE (50°)26.5 mph35.7 mphOvercast
5:55 PM37.4 °F33.8 °F87 %29.98 in5.0 miENE (60°)26.5 mph38.0 mphOvercast
6:15 PM37.4 °F33.8 °F87 %29.97 in4.0 miENE (60°)24.2 mph36.8 mphOvercast
6:35 PM37.4 °F33.8 °F87 %29.96 in7.0 miNE (50°)25.3 mph36.8 mphOvercast
6:55 PM37.4 °F33.8 °F87 %29.96 in7.0 miENE (60°)32.2 mph43.7 mphOvercast
7:15 PM37.4 °F32.0 °F81 %29.96 in7.0 miNE (50°)28.8 mph41.4 mphOvercast
7:35 PM37.4 °F33.8 °F87 %29.95 in5.0 miENE (60°)27.6 mph39.1 mphOvercast
7:55 PM37.4 °F33.8 °F87 %29.95 in7.0 miNE (50°)25.3 mph40.3 mphOvercast
8:15 PM37.4 °F32.0 °F81 %29.95 in7.0 miNE (50°)25.3 mph40.3 mphOvercast
8:35 PM37.4 °F32.0 °F81 %29.93 in6.0 miNE (50°)31.1 mph43.7 mphOvercast
8:55 PM37.4 °F32.0 °F81 %29.93 in6.0 miNE (50°)33.4 mph44.9 mphOvercast
9:15 PM37.4 °F32.0 °F81 %29.93 in7.0 miNE (50°)26.5 mph39.1 mphOvercast
9:35 PM35.6 °F32.0 °F87 %29.93 in5.0 miNE (50°)31.1 mph42.6 mphOvercast
9:55 PM37.4 °F32.0 °F81 %29.93 in6.0 miNE (40°)26.5 mph47.2 mphOvercast
10:15 PM37.4 °F32.0 °F81 %29.92 in6.0 miNE (40°)25.3 mph38.0 mphOvercast
10:35 PM35.6 °F32.0 °F87 %29.93 in6.0 miNE (50°)25.3 mph39.1 mphOvercast
10:55 PM35.6 °F32.0 °F87 %29.92 in5.0 miNE (40°)31.1 mph42.6 mphOvercast
11:15 PM35.6 °F32.0 °F87 %29.92 in5.0 miNE (40°)29.9 mph46.0 mphOvercast
11:35 PM35.6 °F32.0 °F87 %29.92 in5.0 miNE (40°)26.5 mph39.1 mphRainLight Rain
11:55 PM35.6 °F32.0 °F87 %29.92 in4.0 miNE (50°)21.9 mph46.0 mphRainLight Rain
Hourly data recorded from KFMH, located miles away from East Falmouth, Massachusetts







STORIES FROM OUR PARTNERS